Location: Bodest
(46.3000°N, 22.5667°E)
Time: 11:44:13
(UTC+00:00)

CZ-2C R/B - Pass Details

Date: 16 October 2021
Orbit: 784 x 871 km, 98.2° (Epoch: 03 December)

Event Time Altitude Azimuth Distance (km) Brightness Sun altitude
Rises 16:06:45 0° 20° (NNE) 3,471 5.6 -5.1°
Reaches altitude 10° 16:09:21 10° 28° (NNE) 2,528 4.8 -5.6°
Maximum altitude 16:14:34 38° 96° (E) 1,306 3.2 -6.5°
Drops below altitude 10° 16:19:41 10° 163° (SSE) 2,487 5.0 -7.4°
Sets 16:22:12 0° 172° (S) 3,408 5.8 -7.8°
